Year,Month,Day,Hour,Minute,Value (Times are PST for temperature in C)
2015,06,23,00,00,17.90
2015,06,23,00,01,17.90
2015,06,23,00,02,17.80
2015,06,23,00,03,17.80
2015,06,23,00,04,17.70
2015,06,23,00,05,17.70
2015,06,23,00,06,17.70
2015,06,23,00,07,17.60
2015,06,23,00,08,17.60
2015,06,23,00,09,17.60
2015,06,23,00,10,17.50
2015,06,23,00,11,17.50
2015,06,23,00,12,17.40
2015,06,23,00,13,17.40
2015,06,23,00,14,17.40
2015,06,23,00,15,17.30
2015,06,23,00,16,17.30
2015,06,23,00,17,17.30
2015,06,23,00,18,17.30
2015,06,23,00,19,17.30
2015,06,23,00,20,17.30
2015,06,23,00,21,17.30
2015,06,23,00,22,17.30
2015,06,23,00,23,17.30
2015,06,23,00,24,17.30
2015,06,23,00,25,17.30
2015,06,23,00,26,17.30
2015,06,23,00,27,17.30
2015,06,23,00,28,17.30
2015,06,23,00,29,17.30
2015,06,23,00,30,17.30
2015,06,23,00,31,17.20
2015,06,23,00,32,17.20
2015,06,23,00,33,17.20
2015,06,23,00,34,17.20
2015,06,23,00,35,17.10
2015,06,23,00,36,17.10
2015,06,23,00,37,17.10
2015,06,23,00,38,17.10
2015,06,23,00,39,17.10
2015,06,23,00,40,17.10
2015,06,23,00,41,17.10
2015,06,23,00,42,17.10
2015,06,23,00,43,17.10
2015,06,23,00,44,17.10
2015,06,23,00,45,17.00
2015,06,23,00,46,17.00
2015,06,23,00,47,16.90
2015,06,23,00,48,16.90
2015,06,23,00,49,16.90
2015,06,23,00,50,16.80
2015,06,23,00,51,16.80
2015,06,23,00,52,16.70
2015,06,23,00,53,16.70
2015,06,23,00,54,16.70
2015,06,23,00,55,16.60
2015,06,23,00,56,16.60
2015,06,23,00,57,16.50
2015,06,23,00,58,16.40
2015,06,23,00,59,16.40
2015,06,23,01,00,16.40
2015,06,23,01,01,16.40
2015,06,23,01,02,16.40
2015,06,23,01,03,16.40
2015,06,23,01,04,16.30
2015,06,23,01,05,16.30
2015,06,23,01,06,16.30
2015,06,23,01,07,16.30
2015,06,23,01,08,16.20
2015,06,23,01,09,16.20
2015,06,23,01,10,16.20
2015,06,23,01,11,16.10
2015,06,23,01,12,16.10
2015,06,23,01,13,16.10
2015,06,23,01,14,16.10
2015,06,23,01,15,16.10
2015,06,23,01,16,16.10
2015,06,23,01,17,16.10
2015,06,23,01,18,16.10
2015,06,23,01,19,16.10
2015,06,23,01,20,16.10
2015,06,23,01,21,16.00
2015,06,23,01,22,15.90
2015,06,23,01,23,15.90
2015,06,23,01,24,15.90
2015,06,23,01,25,15.90
2015,06,23,01,26,15.90
2015,06,23,01,27,15.80
2015,06,23,01,28,15.80
2015,06,23,01,29,15.80
2015,06,23,01,30,15.80
2015,06,23,01,31,15.80
2015,06,23,01,32,15.70
2015,06,23,01,33,15.70
2015,06,23,01,34,15.70
2015,06,23,01,35,15.70
2015,06,23,01,36,15.80
2015,06,23,01,37,15.80
2015,06,23,01,38,15.80
2015,06,23,01,39,15.80
2015,06,23,01,40,15.80
2015,06,23,01,41,15.80
2015,06,23,01,42,15.90
2015,06,23,01,43,15.90
2015,06,23,01,44,15.90
2015,06,23,01,45,15.90
2015,06,23,01,46,15.90
2015,06,23,01,47,15.90
2015,06,23,01,48,15.90
2015,06,23,01,49,15.90
2015,06,23,01,50,15.80
2015,06,23,01,51,15.80
2015,06,23,01,52,15.80
2015,06,23,01,53,15.70
2015,06,23,01,54,15.60
2015,06,23,01,55,15.60
2015,06,23,01,56,15.60
2015,06,23,01,57,15.60
2015,06,23,01,58,15.50
2015,06,23,01,59,15.50
2015,06,23,02,00,15.50
2015,06,23,02,01,15.50
2015,06,23,02,02,15.40
2015,06,23,02,03,15.40
2015,06,23,02,04,15.40
2015,06,23,02,05,15.30
2015,06,23,02,06,15.30
2015,06,23,02,07,15.30
2015,06,23,02,08,15.20
2015,06,23,02,09,15.20
2015,06,23,02,10,15.30
2015,06,23,02,11,15.30
2015,06,23,02,12,15.40
2015,06,23,02,13,15.40
2015,06,23,02,14,15.40
2015,06,23,02,15,15.40
2015,06,23,02,16,15.40
2015,06,23,02,17,15.40
2015,06,23,02,18,15.50
2015,06,23,02,19,15.60
2015,06,23,02,20,15.70
2015,06,23,02,21,15.70
2015,06,23,02,22,15.70
2015,06,23,02,23,15.70
2015,06,23,02,24,15.60
2015,06,23,02,25,15.60
2015,06,23,02,26,15.50
2015,06,23,02,27,15.40
2015,06,23,02,28,15.40
2015,06,23,02,29,15.30
2015,06,23,02,30,15.30
2015,06,23,02,31,15.30
2015,06,23,02,32,15.20
2015,06,23,02,33,15.20
2015,06,23,02,34,15.20
2015,06,23,02,35,15.10
2015,06,23,02,36,15.10
2015,06,23,02,37,15.00
2015,06,23,02,38,15.00
2015,06,23,02,39,14.90
2015,06,23,02,40,14.80
2015,06,23,02,41,14.80
2015,06,23,02,42,14.70
2015,06,23,02,43,14.70
2015,06,23,02,44,14.60
2015,06,23,02,45,14.60
2015,06,23,02,46,14.50
2015,06,23,02,47,14.50
2015,06,23,02,48,14.50
2015,06,23,02,49,14.50
2015,06,23,02,50,14.40
2015,06,23,02,51,14.40
2015,06,23,02,52,14.40
2015,06,23,02,53,14.40
2015,06,23,02,54,14.40
2015,06,23,02,55,14.40
2015,06,23,02,56,14.40
2015,06,23,02,57,14.40
2015,06,23,02,58,14.40
2015,06,23,02,59,14.40
2015,06,23,03,00,14.40
2015,06,23,03,01,14.40
2015,06,23,03,02,14.40
2015,06,23,03,03,14.40
2015,06,23,03,04,14.40
2015,06,23,03,05,14.40
2015,06,23,03,06,14.40
2015,06,23,03,07,14.40
2015,06,23,03,08,14.40
2015,06,23,03,09,14.40
2015,06,23,03,10,14.40
2015,06,23,03,11,14.40
2015,06,23,03,12,14.40
2015,06,23,03,13,14.40
2015,06,23,03,14,14.40
2015,06,23,03,15,14.40
2015,06,23,03,16,14.40
2015,06,23,03,17,14.40
2015,06,23,03,18,14.40
2015,06,23,03,19,14.40
2015,06,23,03,20,14.40
2015,06,23,03,21,14.40
2015,06,23,03,22,14.30
2015,06,23,03,23,14.30
2015,06,23,03,24,14.30
2015,06,23,03,25,14.30
2015,06,23,03,26,14.30
2015,06,23,03,27,14.30
2015,06,23,03,28,14.20
2015,06,23,03,29,14.20
2015,06,23,03,30,14.20
2015,06,23,03,31,14.20
2015,06,23,03,32,14.20
2015,06,23,03,33,14.20
2015,06,23,03,34,14.20
2015,06,23,03,35,14.20
2015,06,23,03,36,14.20
2015,06,23,03,37,14.20
2015,06,23,03,38,14.20
2015,06,23,03,39,14.20
2015,06,23,03,40,14.10
2015,06,23,03,41,14.10
2015,06,23,03,42,14.10
2015,06,23,03,43,14.10
2015,06,23,03,44,14.10
2015,06,23,03,45,14.00
2015,06,23,03,46,14.00
2015,06,23,03,47,14.00
2015,06,23,03,48,14.00
2015,06,23,03,49,13.90
2015,06,23,03,50,13.90
2015,06,23,03,51,13.90
2015,06,23,03,52,13.80
2015,06,23,03,53,13.80
2015,06,23,03,54,13.80
2015,06,23,03,55,13.70
2015,06,23,03,56,13.70
2015,06,23,03,57,13.70
2015,06,23,03,58,13.70
2015,06,23,03,59,13.60
2015,06,23,04,00,13.60
2015,06,23,04,01,13.60
2015,06,23,04,02,13.60
2015,06,23,04,03,13.50
2015,06,23,04,04,13.50
2015,06,23,04,05,13.50
2015,06,23,04,06,13.40
2015,06,23,04,07,13.40
2015,06,23,04,08,13.40
2015,06,23,04,09,13.30
2015,06,23,04,10,13.30
2015,06,23,04,11,13.30
2015,06,23,04,12,13.30
2015,06,23,04,13,13.30
2015,06,23,04,14,13.20
2015,06,23,04,15,13.20
2015,06,23,04,16,13.10
2015,06,23,04,17,13.10
2015,06,23,04,18,13.10
2015,06,23,04,19,13.00
2015,06,23,04,20,13.00
2015,06,23,04,21,12.90
2015,06,23,04,22,12.90
2015,06,23,04,23,12.80
2015,06,23,04,24,12.80
2015,06,23,04,25,12.80
2015,06,23,04,26,12.80
2015,06,23,04,27,12.80
2015,06,23,04,28,12.80
2015,06,23,04,29,12.70
2015,06,23,04,30,12.70
2015,06,23,04,31,12.70
2015,06,23,04,32,12.70
2015,06,23,04,33,12.70
2015,06,23,04,34,12.60
2015,06,23,04,35,12.60
2015,06,23,04,36,12.60
2015,06,23,04,37,12.60
2015,06,23,04,38,12.60
2015,06,23,04,39,12.50
2015,06,23,04,40,12.50
2015,06,23,04,41,12.50
2015,06,23,04,42,12.40
2015,06,23,04,43,12.40
2015,06,23,04,44,12.40
2015,06,23,04,45,12.30
2015,06,23,04,46,12.30
2015,06,23,04,47,12.30
2015,06,23,04,48,12.30
2015,06,23,04,49,12.30
2015,06,23,04,50,12.30
2015,06,23,04,51,12.30
2015,06,23,04,52,12.30
2015,06,23,04,53,12.30
2015,06,23,04,54,12.30
2015,06,23,04,55,12.30
2015,06,23,04,56,12.30
2015,06,23,04,57,12.30
2015,06,23,04,58,12.30
2015,06,23,04,59,12.30
2015,06,23,05,00,12.30
2015,06,23,05,01,12.30
2015,06,23,05,02,12.30
2015,06,23,05,03,12.30
2015,06,23,05,04,12.30
2015,06,23,05,05,12.30
2015,06,23,05,06,12.30
2015,06,23,05,07,12.30
2015,06,23,05,08,12.30
2015,06,23,05,09,12.20
2015,06,23,05,10,12.10
2015,06,23,05,11,12.00
2015,06,23,05,12,11.90
2015,06,23,05,13,11.80
2015,06,23,05,14,11.70
2015,06,23,05,15,11.60
2015,06,23,05,16,11.50
2015,06,23,05,17,11.40
2015,06,23,05,18,11.40
2015,06,23,05,19,11.30
2015,06,23,05,20,11.20
2015,06,23,05,21,11.10
2015,06,23,05,22,11.10
2015,06,23,05,23,11.00
2015,06,23,05,24,10.90
2015,06,23,05,25,10.90
2015,06,23,05,26,10.90
2015,06,23,05,27,10.80
2015,06,23,05,28,10.80
2015,06,23,05,29,10.70
2015,06,23,05,30,10.70
2015,06,23,05,31,10.70
2015,06,23,05,32,10.60
2015,06,23,05,33,10.60
2015,06,23,05,34,10.60
2015,06,23,05,35,10.60
2015,06,23,05,36,10.60
2015,06,23,05,37,10.60
2015,06,23,05,38,10.60
2015,06,23,05,39,10.60
2015,06,23,05,40,10.60
2015,06,23,05,41,10.60
2015,06,23,05,42,10.60
2015,06,23,05,43,10.60
2015,06,23,05,44,10.60
2015,06,23,05,45,10.60
2015,06,23,05,46,10.60
2015,06,23,05,47,10.60
2015,06,23,05,48,10.60
2015,06,23,05,49,10.60
2015,06,23,05,50,10.60
2015,06,23,05,51,10.60
2015,06,23,05,52,10.60
2015,06,23,05,53,10.60
2015,06,23,05,54,10.70
2015,06,23,05,55,10.70
2015,06,23,05,56,10.70
2015,06,23,05,57,10.70
2015,06,23,05,58,10.70
2015,06,23,05,59,10.80
2015,06,23,06,00,10.80
2015,06,23,06,01,10.80
2015,06,23,06,02,10.80
2015,06,23,06,03,10.90
2015,06,23,06,04,10.90
2015,06,23,06,05,10.90
2015,06,23,06,06,10.90
2015,06,23,06,07,10.90
2015,06,23,06,08,10.90
2015,06,23,06,09,11.00
2015,06,23,06,10,11.10
2015,06,23,06,11,11.10
2015,06,23,06,12,11.20
2015,06,23,06,13,11.20
2015,06,23,06,14,11.30
2015,06,23,06,15,11.30
2015,06,23,06,16,11.40
2015,06,23,06,17,11.50
2015,06,23,06,18,11.60
2015,06,23,06,19,11.60
2015,06,23,06,20,11.70
2015,06,23,06,21,11.70
2015,06,23,06,22,11.80
2015,06,23,06,23,11.80
2015,06,23,06,24,11.80
2015,06,23,06,25,11.80
2015,06,23,06,26,11.90
2015,06,23,06,27,11.90
2015,06,23,06,28,12.00
2015,06,23,06,29,12.00
2015,06,23,06,30,12.10
2015,06,23,06,31,12.10
2015,06,23,06,32,12.20
2015,06,23,06,33,12.20
2015,06,23,06,34,12.20
2015,06,23,06,35,12.20
2015,06,23,06,36,12.30
2015,06,23,06,37,12.30
2015,06,23,06,38,12.30
2015,06,23,06,39,12.30
2015,06,23,06,40,12.30
2015,06,23,06,41,12.30
2015,06,23,06,42,12.40
2015,06,23,06,43,12.40
2015,06,23,06,44,12.50
2015,06,23,06,45,12.50
2015,06,23,06,46,12.60
2015,06,23,06,47,12.60
2015,06,23,06,48,12.70
2015,06,23,06,49,12.70
2015,06,23,06,50,12.80
2015,06,23,06,51,12.80
2015,06,23,06,52,12.90
2015,06,23,06,53,13.00
2015,06,23,06,54,13.10
2015,06,23,06,55,13.10
2015,06,23,06,56,13.20
2015,06,23,06,57,13.30
2015,06,23,06,58,13.30
2015,06,23,06,59,13.40
2015,06,23,07,00,13.50
2015,06,23,07,01,13.50
2015,06,23,07,02,13.60
2015,06,23,07,03,13.60
2015,06,23,07,04,13.60
2015,06,23,07,05,13.70
2015,06,23,07,06,13.80
2015,06,23,07,07,13.80
2015,06,23,07,08,13.90
2015,06,23,07,09,14.00
2015,06,23,07,10,14.00
2015,06,23,07,11,14.10
2015,06,23,07,12,14.20
2015,06,23,07,13,14.20
2015,06,23,07,14,14.20
2015,06,23,07,15,14.30
2015,06,23,07,16,14.30
2015,06,23,07,17,14.40
2015,06,23,07,18,14.40
2015,06,23,07,19,14.50
2015,06,23,07,20,14.50
2015,06,23,07,21,14.50
2015,06,23,07,22,14.60
2015,06,23,07,23,14.70
2015,06,23,07,24,14.80
2015,06,23,07,25,15.00
2015,06,23,07,26,15.00
2015,06,23,07,27,15.10
2015,06,23,07,28,15.20
2015,06,23,07,29,15.30
2015,06,23,07,30,15.40
2015,06,23,07,31,15.50
2015,06,23,07,32,15.60
2015,06,23,07,33,15.60
2015,06,23,07,34,15.70
2015,06,23,07,35,15.70
2015,06,23,07,36,15.80
2015,06,23,07,37,15.90
2015,06,23,07,38,16.00
2015,06,23,07,39,16.10
2015,06,23,07,40,16.10
2015,06,23,07,41,16.20
2015,06,23,07,42,16.30
2015,06,23,07,43,16.40
2015,06,23,07,44,16.40
2015,06,23,07,45,16.50
2015,06,23,07,46,16.60
2015,06,23,07,47,16.60
2015,06,23,07,48,16.60
2015,06,23,07,49,16.60
2015,06,23,07,50,16.60
2015,06,23,07,51,16.60
2015,06,23,07,52,16.50
2015,06,23,07,53,16.40
2015,06,23,07,54,16.40
2015,06,23,07,55,16.30
2015,06,23,07,56,16.30
2015,06,23,07,57,16.20
2015,06,23,07,58,16.10
2015,06,23,07,59,16.10
2015,06,23,08,00,16.00
2015,06,23,08,01,15.90
2015,06,23,08,02,15.90
2015,06,23,08,03,15.90
2015,06,23,08,04,15.90
2015,06,23,08,05,15.90
2015,06,23,08,06,16.00
2015,06,23,08,07,16.10
2015,06,23,08,08,16.10
2015,06,23,08,09,16.20
2015,06,23,08,10,16.20
2015,06,23,08,11,16.30
2015,06,23,08,12,16.30
2015,06,23,08,13,16.40
2015,06,23,08,14,16.40
2015,06,23,08,15,16.40
2015,06,23,08,16,16.40
2015,06,23,08,17,16.40
2015,06,23,08,18,16.60
2015,06,23,08,19,16.60
2015,06,23,08,20,16.60
2015,06,23,08,21,16.60
2015,06,23,08,22,16.70
2015,06,23,08,23,16.70
2015,06,23,08,24,16.80
2015,06,23,08,25,16.90
2015,06,23,08,26,16.90
2015,06,23,08,27,16.90
2015,06,23,08,28,17.00
2015,06,23,08,29,17.00
2015,06,23,08,30,17.00
2015,06,23,08,31,17.00
2015,06,23,08,32,17.00
2015,06,23,08,33,17.00
2015,06,23,08,34,17.00
2015,06,23,08,35,17.00
2015,06,23,08,36,17.00
2015,06,23,08,37,17.10
2015,06,23,08,38,17.10
2015,06,23,08,39,17.20
2015,06,23,08,40,17.30
2015,06,23,08,41,17.30
2015,06,23,08,42,17.20
2015,06,23,08,43,17.20
2015,06,23,08,44,17.20
2015,06,23,08,45,17.20
2015,06,23,08,46,17.20
2015,06,23,08,47,17.30
2015,06,23,08,48,17.30
2015,06,23,08,49,17.30
2015,06,23,08,50,17.30
2015,06,23,08,51,17.30
2015,06,23,08,52,17.30
2015,06,23,08,53,17.40
2015,06,23,08,54,17.50
2015,06,23,08,55,17.60
2015,06,23,08,56,17.60
2015,06,23,08,57,17.60
2015,06,23,08,58,17.60
2015,06,23,08,59,17.60
2015,06,23,09,00,17.60
2015,06,23,09,01,17.60
2015,06,23,09,02,17.70
2015,06,23,09,03,17.70
2015,06,23,09,04,17.80
2015,06,23,09,05,17.90
2015,06,23,09,06,18.00
2015,06,23,09,07,18.10
2015,06,23,09,08,18.10
2015,06,23,09,09,18.00
2015,06,23,09,10,17.80
2015,06,23,09,11,17.60
2015,06,23,09,12,17.40
2015,06,23,09,13,17.30
2015,06,23,09,14,17.30
2015,06,23,09,15,17.30
2015,06,23,09,16,17.20
2015,06,23,09,17,17.10
2015,06,23,09,18,17.00
2015,06,23,09,19,17.00
2015,06,23,09,20,17.00
2015,06,23,09,21,17.00
2015,06,23,09,22,16.90
2015,06,23,09,23,16.90
2015,06,23,09,24,16.90
2015,06,23,09,25,16.90
2015,06,23,09,26,17.00
2015,06,23,09,27,17.10
2015,06,23,09,28,17.20
2015,06,23,09,29,17.20
2015,06,23,09,30,17.10
2015,06,23,09,31,17.00
2015,06,23,09,32,17.00
2015,06,23,09,33,17.00
2015,06,23,09,34,17.10
2015,06,23,09,35,17.20
2015,06,23,09,36,17.20
2015,06,23,09,37,17.30
2015,06,23,09,38,17.30
2015,06,23,09,39,17.40
2015,06,23,09,40,17.50
2015,06,23,09,41,17.60
2015,06,23,09,42,17.60
2015,06,23,09,43,17.70
2015,06,23,09,44,17.70
2015,06,23,09,45,17.70
2015,06,23,09,46,17.60
2015,06,23,09,47,17.50
2015,06,23,09,48,17.50
2015,06,23,09,49,17.60
2015,06,23,09,50,17.70
2015,06,23,09,51,17.80
2015,06,23,09,52,17.80
2015,06,23,09,53,17.90
2015,06,23,09,54,17.90
2015,06,23,09,55,18.00
2015,06,23,09,56,18.10
2015,06,23,09,57,18.10
2015,06,23,09,58,18.20
2015,06,23,09,59,18.30
2015,06,23,10,00,18.40
2015,06,23,10,01,18.40
2015,06,23,10,02,18.50
2015,06,23,10,03,18.50
2015,06,23,10,04,18.50
2015,06,23,10,05,18.50
2015,06,23,10,06,18.60
2015,06,23,10,07,18.70
2015,06,23,10,08,18.80
2015,06,23,10,09,18.90
2015,06,23,10,10,18.90
2015,06,23,10,11,18.80
2015,06,23,10,12,18.80
2015,06,23,10,13,18.70
2015,06,23,10,14,18.70
2015,06,23,10,15,18.60
2015,06,23,10,16,18.60
2015,06,23,10,17,18.60
2015,06,23,10,18,18.70
2015,06,23,10,19,18.80
2015,06,23,10,20,18.80
2015,06,23,10,21,18.70
2015,06,23,10,22,18.60
2015,06,23,10,23,18.70
2015,06,23,10,24,18.70
2015,06,23,10,25,18.70
2015,06,23,10,26,18.70
2015,06,23,10,27,18.80
2015,06,23,10,28,18.80
2015,06,23,10,29,18.80
2015,06,23,10,30,18.90
2015,06,23,10,31,18.90
2015,06,23,10,32,18.90
2015,06,23,10,33,18.90
2015,06,23,10,34,18.90
2015,06,23,10,35,19.10
2015,06,23,10,36,19.10
2015,06,23,10,37,19.10
2015,06,23,10,38,19.10
2015,06,23,10,39,19.10
2015,06,23,10,40,19.00
2015,06,23,10,41,18.90
2015,06,23,10,42,18.90
2015,06,23,10,43,18.70
2015,06,23,10,44,18.60
2015,06,23,10,45,18.70
2015,06,23,10,46,18.70
2015,06,23,10,47,18.60
2015,06,23,10,48,18.70
2015,06,23,10,49,18.70
2015,06,23,10,50,18.70
2015,06,23,10,51,18.80
2015,06,23,10,52,18.80
2015,06,23,10,53,18.60
2015,06,23,10,54,18.60
2015,06,23,10,55,18.50
2015,06,23,10,56,18.50
2015,06,23,10,57,18.50
2015,06,23,10,58,18.60
2015,06,23,10,59,18.60
2015,06,23,11,00,18.60
2015,06,23,11,01,18.60
2015,06,23,11,02,18.70
2015,06,23,11,03,18.80
2015,06,23,11,04,18.80
2015,06,23,11,05,18.90
2015,06,23,11,06,19.00
2015,06,23,11,07,19.10
2015,06,23,11,08,19.10
2015,06,23,11,09,19.20
2015,06,23,11,10,19.20
2015,06,23,11,11,19.20
2015,06,23,11,12,19.20
2015,06,23,11,13,19.00
2015,06,23,11,14,18.90
2015,06,23,11,15,18.80
2015,06,23,11,16,18.80
2015,06,23,11,17,18.80
2015,06,23,11,18,18.90
2015,06,23,11,19,18.90
2015,06,23,11,20,18.90
2015,06,23,11,21,18.90
2015,06,23,11,22,18.80
2015,06,23,11,23,18.70
2015,06,23,11,24,18.60
2015,06,23,11,25,18.60
2015,06,23,11,26,18.70
2015,06,23,11,27,18.60
2015,06,23,11,28,18.60
2015,06,23,11,29,18.60
2015,06,23,11,30,18.60
2015,06,23,11,31,18.60
2015,06,23,11,32,18.70
2015,06,23,11,33,18.80
2015,06,23,11,34,19.00
2015,06,23,11,35,19.10
2015,06,23,11,36,19.20
2015,06,23,11,37,19.20
2015,06,23,11,38,19.10
2015,06,23,11,39,19.10
2015,06,23,11,40,19.10
2015,06,23,11,41,19.10
2015,06,23,11,42,19.20
2015,06,23,11,43,19.40
2015,06,23,11,44,19.50
2015,06,23,11,45,19.70
2015,06,23,11,46,19.70
2015,06,23,11,47,19.70
2015,06,23,11,48,19.60
2015,06,23,11,49,19.40
2015,06,23,11,50,19.20
2015,06,23,11,51,19.10
2015,06,23,11,52,19.10
2015,06,23,11,53,19.10
2015,06,23,11,54,19.10
2015,06,23,11,55,19.00
2015,06,23,11,56,18.90
2015,06,23,11,57,19.00
2015,06,23,11,58,19.10
2015,06,23,11,59,19.10
2015,06,23,12,00,19.10
2015,06,23,12,01,19.20
2015,06,23,12,02,19.20
2015,06,23,12,03,19.10
2015,06,23,12,04,19.20
2015,06,23,12,05,19.20
2015,06,23,12,06,19.30
2015,06,23,12,07,19.20
2015,06,23,12,08,19.20
2015,06,23,12,09,19.10
2015,06,23,12,10,19.10
2015,06,23,12,11,19.20
2015,06,23,12,12,19.40
2015,06,23,12,13,19.50
2015,06,23,12,14,19.50
2015,06,23,12,15,19.50
2015,06,23,12,16,19.50
2015,06,23,12,17,19.50
2015,06,23,12,18,19.50
2015,06,23,12,19,19.50
2015,06,23,12,20,19.60
2015,06,23,12,21,19.50
2015,06,23,12,22,19.50
2015,06,23,12,23,19.50
2015,06,23,12,24,19.50
2015,06,23,12,25,19.50
2015,06,23,12,26,19.60
2015,06,23,12,27,19.70
2015,06,23,12,28,19.80
2015,06,23,12,29,19.90
2015,06,23,12,30,20.00
2015,06,23,12,31,20.10
2015,06,23,12,32,19.90
2015,06,23,12,33,19.70
2015,06,23,12,34,19.60
2015,06,23,12,35,19.60
2015,06,23,12,36,19.50
2015,06,23,12,37,19.60
2015,06,23,12,38,19.60
2015,06,23,12,39,19.50
2015,06,23,12,40,19.60
2015,06,23,12,41,19.60
2015,06,23,12,42,19.40
2015,06,23,12,43,19.20
2015,06,23,12,44,19.30
2015,06,23,12,45,19.40
2015,06,23,12,46,19.50
2015,06,23,12,47,19.60
2015,06,23,12,48,19.60
2015,06,23,12,49,19.50
2015,06,23,12,50,19.40
2015,06,23,12,51,19.30
2015,06,23,12,52,19.30
2015,06,23,12,53,19.30
2015,06,23,12,54,19.20
2015,06,23,12,55,19.30
2015,06,23,12,56,19.30
2015,06,23,12,57,19.50
2015,06,23,12,58,19.50
2015,06,23,12,59,19.50
2015,06,23,13,00,19.50
2015,06,23,13,01,19.70
2015,06,23,13,02,19.80
2015,06,23,13,03,19.90
2015,06,23,13,04,19.90
2015,06,23,13,05,19.80
2015,06,23,13,06,19.70
2015,06,23,13,07,19.70
2015,06,23,13,08,19.70
2015,06,23,13,09,19.70
2015,06,23,13,10,19.80
2015,06,23,13,11,19.70
2015,06,23,13,12,19.80
2015,06,23,13,13,19.90
2015,06,23,13,14,19.90
2015,06,23,13,15,19.90
2015,06,23,13,16,19.90
2015,06,23,13,17,19.80
2015,06,23,13,18,19.90
2015,06,23,13,19,19.90
2015,06,23,13,20,19.90
2015,06,23,13,21,19.90
2015,06,23,13,22,19.80
2015,06,23,13,23,19.90
2015,06,23,13,24,19.90
2015,06,23,13,25,20.10
2015,06,23,13,26,20.20
2015,06,23,13,27,20.20
2015,06,23,13,28,20.20
2015,06,23,13,29,20.20
2015,06,23,13,30,20.10
2015,06,23,13,31,19.90
2015,06,23,13,32,19.80
2015,06,23,13,33,19.90
2015,06,23,13,34,19.90
2015,06,23,13,35,20.00
2015,06,23,13,36,20.10
2015,06,23,13,37,20.20
2015,06,23,13,38,20.20
2015,06,23,13,39,20.20
2015,06,23,13,40,20.30
2015,06,23,13,41,20.20
2015,06,23,13,42,20.20
2015,06,23,13,43,20.20
2015,06,23,13,44,20.10
2015,06,23,13,45,20.10
2015,06,23,13,46,20.20
2015,06,23,13,47,20.20
2015,06,23,13,48,20.30
2015,06,23,13,49,20.40
2015,06,23,13,50,20.50
2015,06,23,13,51,20.60
2015,06,23,13,52,20.80
2015,06,23,13,53,20.90
2015,06,23,13,54,20.60
2015,06,23,13,55,20.50
2015,06,23,13,56,20.20
2015,06,23,13,57,20.20
2015,06,23,13,58,20.20
2015,06,23,13,59,20.20
2015,06,23,14,00,20.20
2015,06,23,14,01,20.10
2015,06,23,14,02,20.00
2015,06,23,14,03,19.70
2015,06,23,14,04,19.60
2015,06,23,14,05,19.50
2015,06,23,14,06,19.60
2015,06,23,14,07,19.60
2015,06,23,14,08,19.60
2015,06,23,14,09,19.60
2015,06,23,14,10,19.40
2015,06,23,14,11,19.20
2015,06,23,14,12,19.10
2015,06,23,14,13,18.90
2015,06,23,14,14,18.90
2015,06,23,14,15,18.90
2015,06,23,14,16,18.90
2015,06,23,14,17,18.90
2015,06,23,14,18,18.90
2015,06,23,14,19,18.90
2015,06,23,14,20,19.00
2015,06,23,14,21,19.10
2015,06,23,14,22,19.20
2015,06,23,14,23,19.40
2015,06,23,14,24,19.50
2015,06,23,14,25,19.50
2015,06,23,14,26,19.40
2015,06,23,14,27,19.40
2015,06,23,14,28,19.30
2015,06,23,14,29,19.10
2015,06,23,14,30,19.10
2015,06,23,14,31,19.20
2015,06,23,14,32,19.40
2015,06,23,14,33,19.50
2015,06,23,14,34,19.60
2015,06,23,14,35,19.80
2015,06,23,14,36,19.80
2015,06,23,14,37,19.70
2015,06,23,14,38,19.70
2015,06,23,14,39,19.70
2015,06,23,14,40,19.80
2015,06,23,14,41,19.80
2015,06,23,14,42,19.80
2015,06,23,14,43,19.80
2015,06,23,14,44,19.70
2015,06,23,14,45,19.60
2015,06,23,14,46,19.50
2015,06,23,14,47,19.40
2015,06,23,14,48,19.40
2015,06,23,14,49,19.30
2015,06,23,14,50,19.20
2015,06,23,14,51,19.10
2015,06,23,14,52,19.20
2015,06,23,14,53,19.20
2015,06,23,14,54,19.30
2015,06,23,14,55,19.30
2015,06,23,14,56,19.30
2015,06,23,14,57,19.40
2015,06,23,14,58,19.50
2015,06,23,14,59,19.40
2015,06,23,15,00,19.40
2015,06,23,15,01,19.40
2015,06,23,15,02,19.60
2015,06,23,15,03,19.70
2015,06,23,15,04,19.70
2015,06,23,15,05,19.70
2015,06,23,15,06,19.80
2015,06,23,15,07,19.90
2015,06,23,15,08,19.90
2015,06,23,15,09,19.90
2015,06,23,15,10,19.90
2015,06,23,15,11,19.90
2015,06,23,15,12,19.80
2015,06,23,15,13,19.60
2015,06,23,15,14,19.40
2015,06,23,15,15,19.30
2015,06,23,15,16,19.10
2015,06,23,15,17,19.10
2015,06,23,15,18,19.10
2015,06,23,15,19,19.10
2015,06,23,15,20,19.10
2015,06,23,15,21,19.10
2015,06,23,15,22,18.90
2015,06,23,15,23,18.90
2015,06,23,15,24,18.90
2015,06,23,15,25,18.80
2015,06,23,15,26,18.90
2015,06,23,15,27,19.00
2015,06,23,15,28,19.10
2015,06,23,15,29,19.10
2015,06,23,15,30,19.00
2015,06,23,15,31,18.90
2015,06,23,15,32,19.00
2015,06,23,15,33,19.10
2015,06,23,15,34,19.10
2015,06,23,15,35,19.10
2015,06,23,15,36,19.10
2015,06,23,15,37,19.20
2015,06,23,15,38,19.30
2015,06,23,15,39,19.40
2015,06,23,15,40,19.40
2015,06,23,15,41,19.40
2015,06,23,15,42,19.30
2015,06,23,15,43,19.30
2015,06,23,15,44,19.20
2015,06,23,15,45,19.10
2015,06,23,15,46,19.10
2015,06,23,15,47,19.10
2015,06,23,15,48,19.10
2015,06,23,15,49,19.10
2015,06,23,15,50,19.10
2015,06,23,15,51,19.10
2015,06,23,15,52,19.20
2015,06,23,15,53,19.20
2015,06,23,15,54,19.10
2015,06,23,15,55,19.20
2015,06,23,15,56,19.30
2015,06,23,15,57,19.20
2015,06,23,15,58,19.10
2015,06,23,15,59,18.90
2015,06,23,16,00,18.70
2015,06,23,16,01,18.60
2015,06,23,16,02,18.50
2015,06,23,16,03,18.50
2015,06,23,16,04,18.60
2015,06,23,16,05,18.70
2015,06,23,16,06,18.90
2015,06,23,16,07,19.10
2015,06,23,16,08,19.00
2015,06,23,16,09,18.90
2015,06,23,16,10,18.80
2015,06,23,16,11,18.60
2015,06,23,16,12,18.50
2015,06,23,16,13,18.50
2015,06,23,16,14,18.40
2015,06,23,16,15,18.30
2015,06,23,16,16,18.10
2015,06,23,16,17,18.00
2015,06,23,16,18,17.90
2015,06,23,16,19,17.90
2015,06,23,16,20,18.00
2015,06,23,16,21,18.10
2015,06,23,16,22,18.20
2015,06,23,16,23,18.20
2015,06,23,16,24,18.20
2015,06,23,16,25,18.20
2015,06,23,16,26,18.20
2015,06,23,16,27,18.20
2015,06,23,16,28,18.10
2015,06,23,16,29,18.10
2015,06,23,16,30,18.00
2015,06,23,16,31,17.90
2015,06,23,16,32,17.90
2015,06,23,16,33,17.90
2015,06,23,16,34,17.90
2015,06,23,16,35,17.90
2015,06,23,16,36,17.90
2015,06,23,16,37,17.90
2015,06,23,16,38,17.90
2015,06,23,16,39,17.90
2015,06,23,16,40,18.10
2015,06,23,16,41,18.20
2015,06,23,16,42,18.30
2015,06,23,16,43,18.30
2015,06,23,16,44,18.40
2015,06,23,16,45,18.50
2015,06,23,16,46,18.60
2015,06,23,16,47,18.70
2015,06,23,16,48,18.70
2015,06,23,16,49,18.70
2015,06,23,16,50,18.70
2015,06,23,16,51,18.70
2015,06,23,16,52,18.80
2015,06,23,16,53,18.90
2015,06,23,16,54,18.90
2015,06,23,16,55,18.80
2015,06,23,16,56,18.70
2015,06,23,16,57,18.70
2015,06,23,16,58,18.60
2015,06,23,16,59,18.50
2015,06,23,17,00,18.50
2015,06,23,17,01,18.50
2015,06,23,17,02,18.60
2015,06,23,17,03,18.60
2015,06,23,17,04,18.70
2015,06,23,17,05,18.60
2015,06,23,17,06,18.60
2015,06,23,17,07,18.60
2015,06,23,17,08,18.60
2015,06,23,17,09,18.60
2015,06,23,17,10,18.60
2015,06,23,17,11,18.60
2015,06,23,17,12,18.70
2015,06,23,17,13,18.80
2015,06,23,17,14,18.90
2015,06,23,17,15,18.90
2015,06,23,17,16,19.00
2015,06,23,17,17,19.10
2015,06,23,17,18,19.20
2015,06,23,17,19,19.20